Weather History for KRAP - August, 2013

Change the Weather History Date:

Monday, August 19, 2013

  Actual Average Record
Temperature  
Mean Temperature 75 °F 71 °F  
Max Temperature 91 °F 86 °F 104 °F (1986)
Min Temperature 58 °F 56 °F 41 °F (1978)
Degree Days  
Heating Degree Days 0 1  
Month to date heating degree days 0 3  
Since 1 June heating degree days 85 117  
Since 1 July heating degree days 5 18  
Cooling Degree Days 10 7  
Month to date cooling degree days 94 156  
Year to date cooling degree days 440 505  
Since 1 June cooling degree days 432 490  
Growing Degree Days 24 (Base 50)    
Moisture  
Dew Point 56 °F    
Average Humidity 55    
Maximum Humidity 84    
Minimum Humidity 26    
Precipitation  
Precipitation 0.00 in 0.04 in 1.16 in (1985)
Month to date precipitation 2.04 1.05  
Year to date precipitation 13.69 12.12  
Snow  
Snow 0.00 in 0.00 in - ()
Month to date snowfall 0.0 0.0  
Since 1 June snowfall 0.0 0.0  
Since 1 July snowfall 0.0 0.0  
Snow Depth 0.00 in    
Sea Level Pressure  
Sea Level Pressure 29.89 in    
Wind  
Wind Speed 7 mph (SSW)    
Max Wind Speed 17 mph    
Max Gust Speed 22 mph    
Visibility 10 miles    
Events      
T = Trace of Precipitation, MM = Missing Value Source: NWS Daily Summary

Daily Weather History Graph

Daily Weather History Graph

Search for Another Location

Airport or City:

Trip Planner

Search our weather history database for the weather conditions in past years. The results will help you decide how hot, cold, wet, or windy it might be!

Date:

Astronomy

Aug. 19, 2013 Rise Set
Actual Time 6:00 AM MDT 7:49 PM MDT
Civil Twilight 5:30 AM MDT 8:20 PM MDT
Nautical Twilight 4:52 AM MDT 8:58 PM MDT
Astronomical Twilight 4:11 AM MDT 9:38 PM MDT
Moon 6:42 PM MDT (8/19) 4:21 AM MDT (8/19)
Length of Visible Light 14h 50m
Length of Day
13h 48m
Waxing Gibbous, 97% of the Moon is Illuminated
Aug 19
Waxing Gibbous
Aug 20
Full
Aug 28
Last Quarter
Sep 5
New
Sep 12
First Quarter

Hourly Weather History & Observations

Time (MDT) Temp. Heat Index Dew Point Humidity Pressure Visibility Wind Dir Wind Speed Gust Speed Precip Events Conditions
12:52 AM 70.0 °F - 59.0 °F 68% 29.92 in 10.0 mi NNW 11.5 mph - N/A   Clear
1:52 AM 71.1 °F - 57.0 °F 61% 29.91 in 10.0 mi NNW 11.5 mph - N/A   Clear
2:52 AM 71.1 °F - 57.0 °F 61% 29.90 in 10.0 mi Variable 4.6 mph - N/A   Clear
3:52 AM 63.0 °F - 55.9 °F 78% 29.92 in 10.0 mi NW 6.9 mph - N/A   Clear
4:52 AM 62.1 °F - 55.0 °F 78% 29.92 in 10.0 mi NNW 8.1 mph - N/A   Clear
5:52 AM 61.0 °F - 55.0 °F 81% 29.92 in 10.0 mi WNW 4.6 mph - N/A   Clear
6:52 AM 63.0 °F - 55.0 °F 75% 29.94 in 10.0 mi WNW 4.6 mph - N/A   Clear
7:52 AM 73.0 °F - 57.0 °F 57% 29.94 in 10.0 mi WNW 4.6 mph - N/A   Clear
8:52 AM 80.1 °F 80.2 °F 55.9 °F 43% 29.94 in 10.0 mi WNW 3.5 mph - N/A   Clear
9:52 AM 82.9 °F - 51.1 °F 33% 29.93 in 10.0 mi South 5.8 mph - N/A   Clear
10:52 AM 86.0 °F 84.0 °F 53.1 °F 32% 29.94 in 10.0 mi SSE 8.1 mph - N/A   Clear
11:52 AM 87.1 °F 85.1 °F 54.0 °F 32% 29.93 in 10.0 mi SSE 6.9 mph - N/A   Clear
12:52 PM 88.0 °F - 52.0 °F 29% 29.91 in 10.0 mi SSE 6.9 mph - N/A   Clear
1:52 PM 89.1 °F 86.7 °F 53.1 °F 29% 29.90 in 10.0 mi SSE 9.2 mph - N/A   Clear
2:52 PM 91.0 °F - 52.0 °F 26% 29.88 in 10.0 mi South 12.7 mph - N/A   Clear
3:52 PM 91.0 °F 88.5 °F 53.1 °F 27% 29.87 in 10.0 mi South 12.7 mph - N/A   Clear
4:52 PM 90.0 °F 88.6 °F 57.0 °F 33% 29.86 in 10.0 mi SSE 13.8 mph - N/A   Clear
5:52 PM 88.0 °F 86.5 °F 55.9 °F 34% 29.85 in 10.0 mi South 11.5 mph - N/A   Clear
6:52 PM 82.0 °F 82.0 °F 57.9 °F 44% 29.84 in 10.0 mi SSE 9.2 mph - N/A   Clear
7:52 PM 75.9 °F - 59.0 °F 56% 29.83 in 10.0 mi ESE 4.6 mph - N/A   Clear
8:52 PM 73.0 °F - 59.0 °F 61% 29.84 in 10.0 mi Calm Calm - N/A   Clear
9:52 PM 70.0 °F - 59.0 °F 68% 29.84 in 10.0 mi South 3.5 mph - N/A   Clear
10:52 PM 71.1 °F - 59.0 °F 66% 29.83 in 10.0 mi South 4.6 mph - N/A   Clear
11:52 PM 66.9 °F - 59.0 °F 76% 29.84 in 10.0 mi Calm Calm - N/A   Clear